Terminal Aerodrome Forecast
Issued by NWS

Home | Current Version | Previous Version | Text Only | Print | Product List | Glossary On
Versions: 1 2 3 4 5 6 7 8 9 10 11 12 13 14 15 16 17 18 19 20 21
000
FTUS46 KHNX 311139
TAFVIS
TAF
KVIS 311139Z 3112/0112 00000KT 1/4SM FG OVC002
     FM311900 00000KT 1SM BR OVC004
     FM312100 VRB03KT 3SM HZ SCT020
     FM010300 00000KT 2SM BR SKC
     FM010800 00000KT 1/4SM FG BKN002=

USA.gov is the U.S. government's official web portal to all federal, state and local government web resources and services.